Terminal Aerodrome Forecast
Issued by NWS

Home | Current Version | Previous Version | Graphics & Text | Print | Product List | Glossary On
Versions: 1 2 3 4 5 6 7 8 9 10 11 12 13 14 15 16 17 18 19 20 21 22 23 24 25 26 27 28 29 30 31 32 33 34 35 36 37 38 39 40 41
000
FTUS43 KGRB 180500
TAFRHI
TAF
KRHI 180523Z 1806/1906 33009G16KT P6SM VCSH OVC015
     FM181000 34007KT P6SM BKN022
     FM181700 34005KT P6SM SCT025 SCT050
     FM182200 33003KT P6SM SKC=

USA.gov is the U.S. government's official web portal to all federal, state and local government web resources and services.